パンスターズ彗星

C/2022 N2 ( PanSTARRS )

English version
Home page
Updated on August 17, 2023

---------------------------------------------------------------------

・ プロフィール

発見日 2022年7月4日
発見光度 20.6等
発見者 Pan-STARRS 2 telescope (Haleakala)

・ 写真集

・ 軌道要素

Epoch 2023 Feb. 25.0 TT = JDT 2460000.5
T 2025 July 31.32655 TT                                 Rudenko
q   3.8270264            (2000.0)            P               Q
z  -0.0010823      Peri.   75.33117     +0.81555112     -0.57535885
 +/-0.0007567      Node   319.74081     +0.48717764     +0.74042188
e   1.0041419      Incl.    5.50144     +0.31230484     +0.34747321
>From 39 observations 2022 June 2-2023 May 1, mean residual 0".3.

・ 星図

・ 光度変化

        m1 = 6.0 + 5 logΔ + 10.0 log r

---------------------------------------------------------------------

軌道要素はM.P.E.C. 2023-J29に掲載されたものです。
星図はステラナビゲータ Ver.10 (アストロアーツ) で作成したものです。
光度グラフはComet for Windowsで作成したものです。

---------------------------------------------------------------------

Copyright(C) Seiichi Yoshida (comet@aerith.net). All rights reserved.